Location: Cambroso
(45.2833°N, 12.0850°E)
Time: 12:27:45
(UTC+00:00)

PSLV R/B - Pass Details

Date: 21 January 2021
Orbit: 567 x 598 km, 98.2° (Epoch: 06 March)

Event Time Altitude Azimuth Distance (km) Brightness Sun altitude
Exits shadow 17:49:12 13° 15° (NNE) 1,768 6.2 -18.4°
Maximum altitude 17:53:00 84° 101° (ESE) 608 3.9 -19.0°
Drops below altitude 10° 17:57:12 10° 193° (SSW) 1,931 6.8 -19.8°
Sets 17:59:22 0° 194° (SSW) 2,827 7.7 -20.1°
